Date String (YYYY-MM-DD hh:mm:ss) UTC,Instrument flags,absolute air pressure of the measurement (hPa),sample flow rate (lpm),inlet stack bypass flow (lpm),air temperature of the measurement (°C),ambient temperature measured by the external sensor (°C),aerosol sample conditioner tube jacket temperature (°C),OPC LED temperature (°C),internal box temperature (°C),relative humidity of the measurement (%),span deviation,mass concentration of particles derived from Lorenz-Mie calculation of OPC scattering (μg/m³),mass concentration of particles derived from Lorenz-Mie calculation of OPC scattering (μg/m³),mass concentration of particles derived from Lorenz-Mie calculation of OPC scattering (μg/m³)
DateTimeUTC,F1_M11,P_M11,Q1_M11,Q2_M11,T1_M11,T2_M11,T3_M11,T4_M11,T5_M11,U1_M11,ZSPAN_M11,X2_M11,X0_M11,X1_M11
2023-09-18 20:00:00,SystemResetWarning,0829.1,5.00,000.00,027.6,026.2,000.0,035.9,029.3,17.3,0000.0,0003.12,0007.63,0002.55
2023-09-18 20:01:00,SystemResetWarning,0829.1,4.99,000.00,027.7,026.5,000.0,035.9,029.4,16.1,0000.0,0003.11,0007.69,0002.55
2023-09-18 20:02:00,SystemResetWarning,0829.1,5.01,000.00,027.7,026.7,000.0,035.9,029.4,16.4,0000.0,0003.11,0007.70,0002.55
2023-09-18 20:03:00,SystemResetWarning,0829.1,4.99,000.00,027.7,026.0,000.0,035.9,029.3,16.7,0000.0,0003.11,0007.59,0002.55
2023-09-18 20:04:00,SystemResetWarning,0829.0,5.00,000.00,027.6,024.4,000.0,035.8,028.8,16.8,0000.0,0003.10,0006.64,0002.56
2023-09-18 20:05:00,SystemResetWarning,0829.0,5.00,000.00,027.5,024.0,000.0,035.8,028.8,16.7,0000.0,0003.09,0005.55,0002.54
2023-09-18 20:06:00,SystemResetWarning,0829.0,5.00,000.00,027.5,024.3,000.0,035.8,028.8,16.7,0000.0,0003.11,0006.22,0002.55
2023-09-18 20:07:00,SystemResetWarning,0828.9,5.01,000.00,027.4,024.7,000.0,035.8,028.9,16.9,0000.0,0003.08,0006.38,0002.53
2023-09-18 20:08:00,SystemResetWarning,0828.9,4.98,000.00,027.5,025.1,000.0,035.8,029.0,17.2,0000.0,0003.04,0006.32,0002.51
2023-09-18 20:09:00,SystemResetWarning,0828.9,4.99,000.00,027.5,025.5,000.0,035.8,029.0,17.0,0000.0,0003.03,0005.64,0002.51
2023-09-18 20:10:00,SystemResetWarning,0829.0,5.00,000.00,027.5,025.9,000.0,035.8,029.2,17.1,0000.0,0002.97,0005.40,0002.50
2023-09-18 20:11:00,SystemResetWarning,0829.0,5.01,000.00,027.6,026.2,000.0,035.8,029.3,16.7,0000.0,0002.99,0005.07,0002.50
2023-09-18 20:12:00,SystemResetWarning,0829.0,5.01,000.00,027.6,026.5,000.0,035.9,029.3,16.8,0000.0,0002.96,0004.83,0002.49
2023-09-18 20:13:00,SystemResetWarning,0829.0,4.99,000.00,027.7,026.6,000.0,035.9,029.4,16.9,0000.0,0002.95,0004.81,0002.49
2023-09-18 20:14:00,SystemResetWarning,0829.0,4.99,000.00,027.6,025.4,000.0,035.9,029.0,17.3,0000.0,0002.95,0004.84,0002.48
2023-09-18 20:15:00,SystemResetWarning,0829.0,5.01,000.00,027.5,024.0,000.0,035.8,028.6,17.9,0000.0,0002.99,0004.97,0002.47
2023-09-18 20:16:00,SystemResetWarning,0829.0,5.01,000.00,027.4,024.0,000.0,035.7,028.7,17.3,0000.0,0003.02,0005.09,0002.48
2023-09-18 20:17:00,SystemResetWarning,0829.0,4.99,000.00,027.4,024.3,000.0,035.7,028.8,17.0,0000.0,0003.00,0004.58,0002.47
2023-09-18 20:18:00,SystemResetWarning,0829.0,5.00,000.00,027.4,024.7,000.0,035.7,028.8,16.5,0000.0,0003.02,0004.44,0002.48
2023-09-18 20:19:00,SystemResetWarning,0829.0,5.00,000.00,027.4,025.1,000.0,035.8,028.9,16.7,0000.0,0003.03,0004.39,0002.48
2023-09-18 20:20:00,SystemResetWarning,0829.0,4.99,000.00,027.4,025.5,000.0,035.8,029.0,17.3,0000.0,0003.00,0004.38,0002.48
2023-09-18 20:21:00,SystemResetWarning,0829.0,4.99,000.00,027.5,025.8,000.0,035.8,029.1,16.5,0000.0,0003.02,0004.52,0002.48
2023-09-18 20:22:00,SystemResetWarning,0829.1,5.00,000.00,027.5,026.1,000.0,035.8,029.2,16.9,0000.0,0002.99,0004.43,0002.47
2023-09-18 20:23:00,SystemResetWarning,0829.1,5.00,000.00,027.6,026.4,000.0,035.8,029.3,17.2,0000.0,0003.02,0004.55,0002.47
2023-09-18 20:24:00,SystemResetWarning,0829.0,5.01,000.00,027.6,026.6,000.0,035.8,029.3,16.7,0000.0,0003.03,0004.60,0002.47
2023-09-18 20:25:00,SystemResetWarning,0829.0,4.98,000.00,027.7,026.4,000.0,035.9,029.3,16.4,0000.0,0003.05,0004.90,0002.48
2023-09-18 20:26:00,SystemResetWarning,0829.0,5.00,000.00,027.6,024.9,000.0,035.8,028.9,17.0,0000.0,0003.05,0005.79,0002.48
2023-09-18 20:27:00,SystemResetWarning,0828.9,5.00,000.00,027.5,023.9,000.0,035.7,028.7,16.8,0000.0,0003.01,0006.12,0002.48
2023-09-18 20:28:00,SystemResetWarning,0829.0,5.01,000.00,027.4,024.1,000.0,035.7,028.7,17.2,0000.0,0003.10,0006.72,0002.49
2023-09-18 20:29:00,SystemResetWarning,0829.0,5.01,000.00,027.4,024.4,000.0,035.7,028.7,16.9,0000.0,0003.11,0007.88,0002.51
2023-09-18 20:30:00,SystemResetWarning,0828.9,4.99,000.00,027.3,024.8,000.0,035.7,028.8,16.7,0000.0,0003.15,0008.19,0002.54
2023-09-18 20:31:00,SystemResetWarning,0829.0,5.00,000.00,027.4,025.2,000.0,035.7,028.9,16.8,0000.0,0003.18,0008.27,0002.56
2023-09-18 20:32:00,SystemResetWarning,0829.0,5.00,000.00,027.4,025.6,000.0,035.7,029.0,16.6,0000.0,0003.20,0008.42,0002.59
2023-09-18 20:33:00,SystemResetWarning,0829.0,5.00,000.00,027.4,025.9,000.0,035.8,029.1,16.3,0000.0,0003.26,0008.69,0002.61
2023-09-18 20:34:00,SystemResetWarning,0828.9,5.00,000.00,027.5,026.2,000.0,035.8,029.2,16.3,0000.0,0003.28,0008.85,0002.63
2023-09-18 20:35:00,SystemResetWarning,0828.9,5.00,000.00,027.5,026.4,000.0,035.8,029.3,16.1,0000.0,0003.32,0009.01,0002.64
2023-09-18 20:36:00,SystemResetWarning,0829.0,5.00,000.00,027.6,026.6,000.0,035.8,029.3,15.8,0000.0,0003.35,0008.98,0002.66
2023-09-18 20:37:00,SystemResetWarning,0829.0,5.00,000.00,027.7,026.7,000.0,035.9,029.4,16.3,0000.0,0003.36,0008.71,0002.67
2023-09-18 20:38:00,SystemResetWarning,0828.9,4.99,000.00,027.6,025.4,000.0,035.8,029.1,16.3,0000.0,0003.39,0008.31,0002.69
2023-09-18 20:39:00,SystemResetWarning,0828.8,5.00,000.00,027.5,024.0,000.0,035.8,028.7,16.2,0000.0,0003.37,0008.48,0002.72
2023-09-18 20:40:00,SystemResetWarning,0828.7,5.00,000.00,027.5,024.0,000.0,035.7,028.8,16.4,0000.0,0003.35,0007.90,0002.71
2023-09-18 20:41:00,SystemResetWarning,0828.8,5.02,000.00,027.4,024.3,000.0,035.7,028.7,16.7,0000.0,0003.35,0007.93,0002.70
2023-09-18 20:42:00,SystemResetWarning,0828.8,5.00,000.00,027.4,024.7,000.0,035.7,028.8,16.6,0000.0,0003.35,0008.04,0002.72
2023-09-18 20:43:00,SystemResetWarning,0828.8,5.00,000.00,027.4,025.1,000.0,035.8,028.9,16.9,0000.0,0003.37,0007.89,0002.73
2023-09-18 20:44:00,SystemResetWarning,0828.8,4.99,000.00,027.4,025.5,000.0,035.8,029.0,17.5,0000.0,0003.35,0007.73,0002.73
2023-09-18 20:45:00,SystemResetWarning,0828.8,4.99,000.00,027.5,025.8,000.0,035.8,029.1,17.9,0000.0,0003.34,0007.60,0002.72
2023-09-18 20:46:00,SystemResetWarning,0828.8,5.02,000.00,027.5,026.1,000.0,035.8,029.2,16.2,0000.0,0003.36,0007.55,0002.74
2023-09-18 20:47:00,SystemResetWarning,0828.8,5.00,000.00,027.6,026.3,000.0,035.8,029.3,16.1,0000.0,0003.34,0008.22,0002.73
2023-09-18 20:48:00,SystemResetWarning,0828.8,5.00,000.00,027.6,026.6,000.0,035.9,029.4,16.5,0000.0,0003.34,0008.31,0002.74
2023-09-18 20:49:00,SystemResetWarning,0828.8,4.99,000.00,027.7,026.4,000.0,035.9,029.4,16.4,0000.0,0003.35,0008.57,0002.75
2023-09-18 20:50:00,SystemResetWarning,0828.8,4.99,000.00,027.6,024.9,000.0,035.8,029.0,16.8,0000.0,0003.36,0008.66,0002.75
2023-09-18 20:51:00,SystemResetWarning,0828.7,5.01,000.00,027.5,023.9,000.0,035.8,028.7,16.7,0000.0,0003.38,0008.39,0002.76
2023-09-18 20:52:00,SystemResetWarning,0828.7,5.01,000.00,027.4,024.0,000.0,035.7,028.8,16.8,0000.0,0003.35,0008.00,0002.75
2023-09-18 20:53:00,SystemResetWarning,0828.7,4.99,000.00,027.4,024.4,000.0,035.7,028.8,17.0,0000.0,0003.34,0007.86,0002.75
2023-09-18 20:54:00,SystemResetWarning,0828.7,4.99,000.00,027.4,024.8,000.0,035.8,028.8,17.2,0000.0,0003.32,0007.84,0002.75
2023-09-18 20:55:00,SystemResetWarning,0828.7,5.00,000.00,027.4,025.2,000.0,035.8,028.9,17.4,0000.0,0003.30,0007.77,0002.76
2023-09-18 20:56:00,SystemResetWarning,0828.7,5.01,000.00,027.4,025.5,000.0,035.8,029.0,17.6,0000.0,0003.32,0007.81,0002.77
2023-09-18 20:57:00,SystemResetWarning,0828.8,5.00,000.00,027.5,025.9,000.0,035.8,029.1,17.4,0000.0,0003.33,0007.85,0002.76
2023-09-18 20:58:00,SystemResetWarning,0828.7,5.00,000.00,027.5,026.1,000.0,035.8,029.2,16.5,0000.0,0003.35,0006.98,0002.77
2023-09-18 20:59:00,SystemResetWarning,0828.7,5.00,000.00,027.6,026.4,000.0,035.8,029.3,16.7,0000.0,0003.34,0007.06,0002.77
